When you browse on this site, cookies collect data to enhance your experience and personalize the content and advertising you see.
Visit our Privacy Policy to learn more. By continuing to use the site, you agree to this use of cookies and data.
  • In Czech Republic
  • List of Countries
  • For 7 days
  • Water Temperature
  • Satellite Maps
  • Weather Map
  • Weather Widgets
  • user-avatar
    Login

    Hourly Weather Moroskino

    Today, 20 November, Tuesday

    Time Temperature Precipitation Wind Pressure Humidity
    00:00 -4°C° 0 mm 3 mps 757 mmHg 89%
    01:00 -4°C° 0 mm 3 mps 757 mmHg 90%
    02:00 -4°C° 0 mm 3 mps 757 mmHg 90%
    03:00 -3°C° 0 mm 2 mps 757 mmHg 90%
    04:00 -3°C° 0 mm 2 mps 756 mmHg 90%
    05:00 -3°C° 0 mm 2 mps 756 mmHg 90%
    06:00 -4°C° 0 mm 2 mps 756 mmHg 90%
    07:00 -4°C° 0 mm 2 mps 756 mmHg 91%
    08:00 -4°C° 0 mm 2 mps 756 mmHg 91%
    09:00 -4°C° 0 mm 2 mps 755 mmHg 90%
    10:00 -4°C° 0 mm 2 mps 755 mmHg 87%
    11:00 -3°C° 0 mm 2 mps 755 mmHg 83%
    12:00 -3°C° 0 mm 2 mps 755 mmHg 79%
    13:00 -3°C° 0 mm 2 mps 754 mmHg 78%
    14:00 -4°C° 0 mm 3 mps 754 mmHg 77%
    15:00 -4°C° 0 mm 3 mps 753 mmHg 76%
    16:00 -4°C° 0 mm 3 mps 753 mmHg 77%
    17:00 -5°C° 0 mm 3 mps 752 mmHg 78%
    18:00 -5°C° 0 mm 4 mps 751 mmHg 79%
    19:00 -5°C° 0 mm 4 mps 751 mmHg 80%
    20:00 -5°C° 0 mm 4 mps 750 mmHg 80%
    21:00 -7°C° 0 mm 4 mps 750 mmHg 80%
    22:00 -5°C° 0 mm 4 mps 749 mmHg 79%
    23:00 -5°C° 0 mm 4 mps 748 mmHg 77%

    Tomorrow, 21 November, Wednesday

    Time Temperature Precipitation Wind Pressure Humidity
    00:00 -6°C° 0 mm 5 mps 748 mmHg 76%
    01:00 -6°C° 0 mm 5 mps 747 mmHg 75%
    02:00 -6°C° 0 mm 5 mps 747 mmHg 75%
    03:00 -6°C° 0 mm 5 mps 746 mmHg 74%
    04:00 -5°C° 0 mm 5 mps 746 mmHg 77%
    05:00 -5°C° 0 mm 5 mps 746 mmHg 79%
    06:00 -5°C° 0 mm 5 mps 745 mmHg 82%
    07:00 -5°C° 0.1 mm 5 mps 745 mmHg 82%
    08:00 -4°C° 0.1 mm 5 mps 745 mmHg 81%
    09:00 -4°C° 0.1 mm 5 mps 745 mmHg 81%
    10:00 -4°C° 0.1 mm 5 mps 745 mmHg 78%
    11:00 -3°C° 0.1 mm 6 mps 745 mmHg 74%
    12:00 -3°C° 0.1 mm 6 mps 746 mmHg 71%
    13:00 -4°C° 0.1 mm 6 mps 746 mmHg 70%
    14:00 -4°C° 0.1 mm 5 mps 746 mmHg 69%
    15:00 -4°C° 0.1 mm 5 mps 746 mmHg 68%
    16:00 -5°C° 0 mm 5 mps 746 mmHg 69%
    17:00 -6°C° 0 mm 5 mps 747 mmHg 69%
    18:00 -7°C° 0 mm 5 mps 747 mmHg 70%
    19:00 -7°C° 0 mm 4 mps 747 mmHg 71%
    20:00 -7°C° 0 mm 4 mps 747 mmHg 72%
    21:00 -7°C° 0 mm 4 mps 747 mmHg 72%
    22:00 -7°C° 0 mm 4 mps 746 mmHg 74%
    23:00 -7°C° 0 mm 4 mps 746 mmHg 76%

    Day after tomorrow, 22 November, Thursday

    Time Temperature Precipitation Wind Pressure Humidity
    00:00 -7°C° 0 mm 4 mps 746 mmHg 77%
    01:00 -7°C° 0 mm 4 mps 745 mmHg 79%
    02:00 -7°C° 0 mm 4 mps 745 mmHg 81%
    03:00 -7°C° 0 mm 4 mps 745 mmHg 83%
    04:00 -7°C° 0 mm 4 mps 744 mmHg 84%
    05:00 -7°C° 0 mm 4 mps 744 mmHg 85%
    06:00 -8°C° 0 mm 4 mps 744 mmHg 87%
    07:00 -7°C° 0 mm 4 mps 743 mmHg 85%
    08:00 -7°C° 0 mm 5 mps 743 mmHg 84%
    09:00 -6°C° 0 mm 5 mps 742 mmHg 83%
    10:00 -6°C° 0.1 mm 6 mps 742 mmHg 80%
    11:00 -7°C° 0.1 mm 7 mps 741 mmHg 78%
    12:00 -6°C° 0.1 mm 7 mps 740 mmHg 76%
    13:00 -6°C° 0.2 mm 7 mps 739 mmHg 77%
    14:00 -6°C° 0.2 mm 7 mps 739 mmHg 78%
    15:00 -6°C° 0.2 mm 7 mps 738 mmHg 79%
    16:00 -5°C° 0.1 mm 6 mps 737 mmHg 82%
    17:00 -5°C° 0.1 mm 6 mps 737 mmHg 84%
    18:00 -5°C° 0.1 mm 5 mps 736 mmHg 87%
    19:00 -5°C° 0.6 mm 6 mps 735 mmHg 85%
    20:00 -4°C° 0.6 mm 6 mps 734 mmHg 84%
    21:00 -4°C° 0.6 mm 7 mps 733 mmHg 82%
    22:00 -6°C° 0.3 mm 8 mps 733 mmHg 80%
    23:00 -6°C° 0.3 mm 9 mps 734 mmHg 77%

    23 November, Friday

    Time Temperature Precipitation Wind Pressure Humidity
    00:00 -8°C° 0.3 mm 10 mps 734 mmHg 74%
    01:00 -9°C° 0.1 mm 9 mps 735 mmHg 72%
    02:00 -10°C° 0.1 mm 9 mps 736 mmHg 69%
    03:00 -11°C° 0.1 mm 8 mps 737 mmHg 66%
    04:00 -11°C° 0.1 mm 9 mps 738 mmHg 69%
    05:00 -11°C° 0.1 mm 9 mps 739 mmHg 71%
    06:00 -11°C° 0.1 mm 9 mps 740 mmHg 73%
    07:00 -11°C° 0.1 mm 8 mps 741 mmHg 73%
    08:00 -11°C° 0.1 mm 8 mps 743 mmHg 72%
    09:00 -11°C° 0.1 mm 7 mps 744 mmHg 72%
    10:00 -11°C° 0 mm 7 mps 745 mmHg 71%
    11:00 -11°C° 0 mm 7 mps 746 mmHg 71%
    12:00 -10°C° 0 mm 6 mps 747 mmHg 70%
    13:00 -10°C° 0 mm 6 mps 747 mmHg 71%
    14:00 -10°C° 0 mm 6 mps 748 mmHg 71%
    15:00 -10°C° 0 mm 5 mps 748 mmHg 72%
    16:00 -11°C° 0 mm 5 mps 749 mmHg 74%
    17:00 -10°C° 0 mm 4 mps 749 mmHg 76%
    18:00 -10°C° 0 mm 4 mps 750 mmHg 79%
    19:00 -10°C° 0 mm 4 mps 750 mmHg 79%
    20:00 -10°C° 0 mm 4 mps 750 mmHg 79%
    21:00 -10°C° 0 mm 4 mps 750 mmHg 80%
    22:00 -10°C° 0 mm 4 mps 750 mmHg 79%
    23:00 -10°C° 0 mm 4 mps 750 mmHg 78%

    24 November, Saturday

    Time Temperature Precipitation Wind Pressure Humidity
    00:00 -9°C° 0 mm 4 mps 750 mmHg 77%
    01:00 -10°C° 0 mm 4 mps 750 mmHg 79%
    02:00 -10°C° 0 mm 4 mps 750 mmHg 80%
    03:00 -10°C° 0 mm 4 mps 749 mmHg 82%
    04:00 -11°C° 0 mm 5 mps 749 mmHg 83%
    05:00 -10°C° 0 mm 5 mps 749 mmHg 83%
    06:00 -10°C° 0 mm 5 mps 748 mmHg 84%
    07:00 -10°C° 0 mm 5 mps 748 mmHg 84%
    08:00 -10°C° 0 mm 5 mps 748 mmHg 85%
    09:00 -10°C° 0 mm 5 mps 747 mmHg 85%
    10:00 -10°C° 0 mm 6 mps 747 mmHg 84%
    11:00 -9°C° 0 mm 6 mps 747 mmHg 82%
    12:00 -8°C° 0 mm 6 mps 746 mmHg 81%
    13:00 -8°C° 0.1 mm 6 mps 746 mmHg 81%
    14:00 -6°C° 0.1 mm 6 mps 745 mmHg 81%
    15:00 -6°C° 0.1 mm 6 mps 745 mmHg 81%
    16:00 -6°C° 0.1 mm 6 mps 745 mmHg 81%
    17:00 -6°C° 0.1 mm 6 mps 744 mmHg 81%
    18:00 -6°C° 0.1 mm 6 mps 744 mmHg 82%
    19:00 -6°C° 0 mm 6 mps 744 mmHg 81%
    20:00 -6°C° 0 mm 6 mps 743 mmHg 81%
    21:00 -6°C° 0 mm 6 mps 743 mmHg 81%
    22:00 -6°C° 0 mm 6 mps 743 mmHg 81%
    23:00 -6°C° 0 mm 6 mps 743 mmHg 81%

    25 November, Sunday

    Time Temperature Precipitation Wind Pressure Humidity
    00:00 -6°C° 0 mm 6 mps 743 mmHg 80%
    01:00 -6°C° 0 mm 6 mps 743 mmHg 81%
    02:00 -6°C° 0 mm 6 mps 743 mmHg 81%
    03:00 -6°C° 0 mm 6 mps 743 mmHg 82%
    04:00 -6°C° 0 mm 5 mps 744 mmHg 83%
    05:00 -6°C° 0 mm 5 mps 744 mmHg 85%
    06:00 -7°C° 0 mm 4 mps 744 mmHg 87%
    07:00 -7°C° 0 mm 4 mps 745 mmHg 88%
    08:00 -7°C° 0 mm 4 mps 745 mmHg 90%
    09:00 -7°C° 0 mm 4 mps 746 mmHg 91%
    10:00 -7°C° 0 mm 4 mps 746 mmHg 89%
    11:00 -5°C° 0 mm 3 mps 746 mmHg 88%
    12:00 -5°C° 0 mm 3 mps 746 mmHg 86%
    13:00 -5°C° 0 mm 3 mps 746 mmHg 88%
    14:00 -5°C° 0 mm 3 mps 746 mmHg 89%
    15:00 -5°C° 0 mm 2 mps 746 mmHg 91%
    16:00 -5°C° 0 mm 2 mps 746 mmHg 92%
    17:00 -6°C° 0 mm 2 mps 747 mmHg 93%
    18:00 -6°C° 0 mm 2 mps 747 mmHg 94%
    19:00 -6°C° 0 mm 2 mps 747 mmHg 94%
    20:00 -6°C° 0 mm 2 mps 747 mmHg 94%
    21:00 -6°C° 0 mm 2 mps 747 mmHg 93%
    22:00 -6°C° 0 mm 2 mps 746 mmHg 93%
    23:00 -6°C° 0 mm 2 mps 746 mmHg 93%
    Show more